Weather History for KLFK - April, 2014

Change the Weather History Date:

Sunday, April 13, 2014

  Actual Average Record
Temperature  
Mean Temperature 73 °F 66 °F  
Max Temperature 77 °F 78 °F 98 °F (1936)
Min Temperature 68 °F 54 °F 31 °F (1940)
Degree Days  
Heating Degree Days 0 3  
Month to date heating degree days 26 44  
Since 1 July heating degree days 2079 1888  
Cooling Degree Days 8 4  
Month to date cooling degree days 58 38  
Year to date cooling degree days 93 98  
Growing Degree Days 22 (Base 50)    
Moisture  
Dew Point 65 °F    
Average Humidity 77    
Maximum Humidity 84    
Minimum Humidity 69    
Precipitation  
Precipitation 0.01 in 0.09 in 3.48 in (1948)
Month to date precipitation 2.41 1.28  
Year to date precipitation 7.78 13.11  
Snow  
Snow 0.00 in - - ()
Month to date snowfall 0.0  
Since 1 July snowfall 3.2  
Snow Depth 0.00 in    
Sea Level Pressure  
Sea Level Pressure 29.84 in    
Wind  
Wind Speed 10 mph (SSE)    
Max Wind Speed 22 mph    
Max Gust Speed 28 mph    
Visibility 9 miles    
Events Rain    
T = Trace of Precipitation, MM = Missing Value Source: NWS Daily Summary

Daily Weather History Graph

Daily Weather History Graph

Search for Another Location

Airport or City:

Trip Planner

Search our weather history database for the weather conditions in past years. The results will help you decide how hot, cold, wet, or windy it might be!

Date:

Astronomy

Apr. 13, 2014 Rise Set
Actual Time 6:53 AM CDT 7:46 PM CDT
Civil Twilight 6:28 AM CDT 8:11 PM CDT
Nautical Twilight 5:59 AM CDT 8:40 PM CDT
Astronomical Twilight 5:29 AM CDT 9:10 PM CDT
Moon 6:29 PM CDT (4/13) 5:46 AM CDT (4/13)
Length of Visible Light 13h 42m
Length of Day
12h 52m
Waxing Gibbous, 97% of the Moon is Illuminated
Apr 13
Waxing Gibbous
Apr 15
Full
Apr 22
Last Quarter
Apr 29
New
May 6
First Quarter

Hourly Weather History & Observations

Time (CDT) Temp. Dew Point Humidity Pressure Visibility Wind Dir Wind Speed Gust Speed Precip Events Conditions
12:02 AM 66.9 °F 60.1 °F 79% 29.91 in 10.0 mi SSE 12.7 mph - N/A   Mostly Cloudy
12:50 AM 68.0 °F 60.8 °F 78% 29.91 in 10.0 mi South 15.0 mph 23.0 mph N/A   Overcast
12:53 AM 68.0 °F 61.0 °F 78% 29.90 in 10.0 mi South 15.0 mph 23.0 mph N/A   Overcast
1:53 AM 69.1 °F 61.0 °F 75% 29.90 in 10.0 mi South 9.2 mph - N/A   Overcast
2:53 AM 68.0 °F 61.0 °F 78% 29.88 in 10.0 mi South 8.1 mph - N/A   Mostly Cloudy
3:53 AM 69.1 °F 62.1 °F 78% 29.87 in 10.0 mi South 8.1 mph - N/A   Overcast
4:53 AM 69.1 °F 62.1 °F 78% 29.86 in 10.0 mi South 5.8 mph - N/A   Overcast
5:53 AM 69.1 °F 63.0 °F 81% 29.87 in 10.0 mi SSE 5.8 mph - N/A   Overcast
6:53 AM 69.1 °F 63.0 °F 81% 29.88 in 9.0 mi Calm Calm - N/A   Overcast
7:51 AM 69.8 °F 64.4 °F 83% 29.89 in 8.0 mi SE 4.6 mph - N/A   Overcast
7:53 AM 70.0 °F 64.0 °F 81% 29.88 in 8.0 mi SE 4.6 mph - N/A   Overcast
8:22 AM 70.0 °F 64.9 °F 84% 29.89 in 8.0 mi ESE 5.8 mph - N/A   Overcast
8:53 AM 71.1 °F 64.9 °F 81% 29.88 in 8.0 mi SE 9.2 mph - N/A   Overcast
9:35 AM 72.0 °F 66.0 °F 81% 29.89 in 8.0 mi SE 10.4 mph - N/A   Overcast
9:38 AM 73.4 °F 66.2 °F 78% 29.89 in 8.0 mi SSE 9.2 mph - N/A   Overcast
9:53 AM 73.0 °F 66.9 °F 81% 29.88 in 9.0 mi SSE 9.2 mph - N/A   Overcast
10:53 AM 75.9 °F 68.0 °F 76% 29.88 in 9.0 mi SSE 11.5 mph - N/A   Overcast
11:12 AM 75.9 °F 68.0 °F 76% 29.88 in 9.0 mi SSE 11.5 mph - N/A   Overcast
11:53 AM 75.0 °F 68.0 °F 79% 29.87 in 10.0 mi SSE 9.2 mph - 0.00 in   Overcast
12:43 PM 77.0 °F 66.9 °F 71% 29.86 in 10.0 mi SSE 12.7 mph 23.0 mph N/A   Overcast
12:53 PM 77.0 °F 66.9 °F 71% 29.85 in 10.0 mi SSE 15.0 mph 23.0 mph N/A   Overcast
1:17 PM 77.0 °F 66.9 °F 71% 29.86 in 10.0 mi South 17.3 mph 21.9 mph N/A   Overcast
1:40 PM 75.9 °F 66.0 °F 71% 29.85 in 10.0 mi SSE 12.7 mph 21.9 mph N/A   Overcast
1:53 PM 75.9 °F 66.0 °F 71% 29.84 in 10.0 mi SSE 10.4 mph - N/A   Overcast
2:53 PM 75.9 °F 66.9 °F 74% 29.82 in 10.0 mi SSE 13.8 mph - 0.01 in   Overcast
3:53 PM 73.9 °F 64.9 °F 73% 29.79 in 9.0 mi SSE 20.7 mph 24.2 mph 0.00 in Rain Light Rain
4:53 PM 75.0 °F 64.9 °F 71% 29.78 in 10.0 mi SSE 15.0 mph 23.0 mph 0.00 in   Overcast
5:53 PM 73.9 °F 64.9 °F 73% 29.75 in 10.0 mi SSE 11.5 mph - N/A   Scattered Clouds
6:53 PM 73.4 °F 64.4 °F 73% 29.70 in 10.0 mi SSE 15.0 mph 26.5 mph N/A   Clear
7:27 PM 73.0 °F 66.0 °F 79% 29.70 in 10.0 mi SSE 15.0 mph - N/A   Mostly Cloudy
7:53 PM 73.0 °F 66.9 °F 81% 29.71 in 10.0 mi SSE 10.4 mph - N/A   Overcast
8:53 PM 73.9 °F 68.0 °F 82% 29.72 in 10.0 mi South 10.4 mph - N/A   Overcast
9:53 PM 75.0 °F 69.1 °F 82% 29.72 in 9.0 mi South 10.4 mph - N/A   Overcast
10:53 PM 75.0 °F 70.0 °F 84% 29.75 in 7.0 mi South 8.1 mph - 0.00 in   Overcast
11:53 PM 75.0 °F 70.0 °F 84% 29.73 in 7.0 mi South 6.9 mph - 0.00 in   Overcast